Location: Unspecified
(48.2082°N, 0.0000°E)
Time: 21:39:26
(UTC+00:00)

A-11 Canister half - Pass Details

Date: 29 June 2019
Orbit: 1514 x 1686 km, 47.2° (Epoch: 21 October)

Event Time Altitude Azimuth Distance (km) Brightness Sun altitude
Rises 12:56:54 0° 281° (W) 4,886 11.7 62.9°
Reaches altitude 10° 13:00:05 10° 280° (W) 3,878 11.4 62.6°
Maximum altitude 13:09:55 75° 197° (SSW) 1,642 11.2 61.7°
Drops below altitude 10° 13:19:23 10° 115° (ESE) 3,735 11.1 60.8°
Sets 13:22:23 0° 113° (ESE) 4,698 11.5 60.5°
